Regional Weather Roundup
Issued by NWS Mt. Holly, NJ

Home | Current Version | Previous Version | Text Only | Print | Product List | Glossary On
Versions: 1 2 3 4 5 6 7 8 9 10 11 12 13 14 15 16 17 18 19 20 21 22 23 24 25 26 27 28 29 30 31 32 33 34 35 36 37 38 39 40 41 42 43 44 45 46 47 48 49 50
000
ASUS41 KPHI 231210
RWRPHI

REGIONAL WEATHER ROUNDUP
NATIONAL WEATHER SERVICE MOUNT HOLLY NJ
800 AM EDT WED JUL 23 2014

NOTE:  "FAIR" INDICATES FEW OR NO CLOUDS BELOW 12,000 FEET WITH NO
SIGNIFICANT WEATHER AND/OR OBSTRUCTIONS TO VISIBILITY.

 * = STATION DOES NOT REPORT PRECIPITATION (E.G. RAIN, SNOW, ETC.)
        OR FOG.

NJZ015>026-231300-
SOUTHERN NEW JERSEY

CITY           SKY/WX    TMP DP  RH WIND       PRES   REMARKS
POMONA         CLOUDY    73  70  90 SW7       30.02R
6HR MIN TEMP:  68; 6HR MAX TEMP:  73;

RIO GRANDE*    SUNNY     75  70  83 SW6       30.04R
MILLVILLE      CLOUDY    75  72  90 SW5       30.02R
WRIGHTSTOWN    MOSUNNY   71  70  96 SW7       30.00R
MOUNT HOLLY    CLOUDY    74  70  87 CALM      30.01R
TRENTON        PTSUNNY   72  67  84 SW7       30.00S
6HR MIN TEMP:  67; 6HR MAX TEMP:  72;


$$
NJZ001>014-231300-
NORTHERN NEW JERSEY

CITY           SKY/WX    TMP DP  RH WIND       PRES   REMARKS
SUSSEX         SUNNY     74  68  81 S6        29.99R
ANDOVER*         N/A     73  67  81 S3        30.00S
MORRISTOWN     MOSUNNY   73  66  78 SW8       30.00R
NEWARK         PTSUNNY   74  67  78 SW9       30.00R
TETERBORO      MOSUNNY   77  65  66 SW8       29.98R
CALDWELL       PTSUNNY   72  64  76 VRB5      29.99R
SOMERVILLE     SUNNY     72  66  81 S6        29.98S
ALLAIRE*       CLOUDY    73  66  78 SW7       30.02R
TOMS RIVER*    MOSUNNY   75  70  83 W8        30.02R

$$
PAZ043-044-047-054-055-060>062-066>071-231300-
EASTERN PENNSYLVANIA

CITY           SKY/WX    TMP DP  RH WIND       PRES   REMARKS
PHILADELPHIA   MOSUNNY   75  67  76 SW8       30.01R
6HR MIN TEMP:  72; 6HR MAX TEMP:  75;

NORTH PHILA    MOSUNNY   77  67  71 SW6       30.02R
BLUE BELL      MOSUNNY   73  70  88 S3        30.00F
DOYLESTOWN     SUNNY     72  68  87 SW3       30.00S
QUAKERTOWN*    SUNNY     73  68  83 CALM      30.01F
POTTSTOWN      SUNNY     73  68  84 S3        30.02S
LANCASTER      SUNNY     74  68  81 SW5       30.01R
COATESVILLE    SUNNY     72  72 100 W3        30.03S
READING        SUNNY     76  67  73 SW5       30.00S
6HR MIN TEMP:  70; 6HR MAX TEMP:  76;

ALLENTOWN      SUNNY     75  67  76 SW5       30.01R
6HR MIN TEMP:  68; 6HR MAX TEMP:  75;

MOUNT POCONO   CLOUDY    69  67  93 W10       30.05S FOG
6HR MIN TEMP:  66; 6HR MAX TEMP:  69;

HAZLETON       MOSUNNY   73  70  88 W5        30.07S
WILKES BARRE   CLOUDY    75  68  78 SW8       30.00S

$$
DEZALL-MDZ008-012-015-019-020-231300-
DELAWARE AND EASTERN MARYLAND

CITY           SKY/WX    TMP DP  RH WIND       PRES   REMARKS
WILMINGTON     SUNNY     75  71  87 SW8       30.02R
6HR MIN TEMP:  71; 6HR MAX TEMP:  75;

DOVER          CLOUDY    73  73 100 SW9       30.01R
GEORGETOWN     MOSUNNY   73  71  93 S12       30.03S
6HR MIN TEMP:  67; 6HR MAX TEMP:  73;

PATUXENT       MOSUNNY   75  72  90 SW7       30.02R
OCEAN CITY     MOSUNNY   76  73  91 W3        30.03R
WALLOPS ISLAND MOSUNNY   76  74  93 SW6       30.04R
CAMBRIDGE      SUNNY     79  73  83 S3        30.02S

$$
PAZ001-021-NYZ056-072-MDZ011-DCZ001-231300-
OTHER NEARBY LOCATIONS

CITY           SKY/WX    TMP DP  RH WIND       PRES   REMARKS
HARRISBURG     MOSUNNY   77  69  76 CALM      29.99S
STATE COLLEGE  MOSUNNY   72  70  94 CALM      30.00F
WILLIAMSPORT   MOSUNNY   73  68  84 CALM      29.97S
BINGHAMTON     MOSUNNY   73  69  87 SW12      29.99S
NEW YORK CITY  SUNNY     75  65  70 VRB3      30.02R
BALTIMORE      MOSUNNY   76  70  82 SW3       30.00S
WASHINGTON DC  MOSUNNY   78  70  76 S6        30.02R

$$


USA.gov is the U.S. government's official web portal to all federal, state and local government web resources and services.